Disclaimer

Please do not use the information listed here in-flight or in-navigation, as they are not provided to us by the airports but are provided by volunteers, so they might be outdated.

Search


Regions


Airport information page

Radio informations:
Tower (TWR) - 119.8 MHz

Airport informations:
Latitude: 52° 11' 42.00" N
Longitude: 077° 04' 26.00" E
Elevation: 410 feet - 125 meters
Operating hours: N/A
Operating agency: Civil government, landing fees and diplomatic clearance may be required
Timezone: UTC+6
Fuel: N/A

Runway information:
03/21 - 8202 x 148 feet< - >2500 x 45 meters

Recent METARs:
UASP 152100Z 36004MPS 9999 OVC028 M06/M07 Q1016 R21/0///60 NOSIG RMK QFE751/1002
UASP 152200Z 01003MPS 9999 OVC020 M07/M08 Q1017 R21/0///60 NOSIG RMK QFE752/1002
UASP 152230Z 01003MPS 9999 OVC035 M07/M08 Q1017 R21/0///60 NOSIG RMK QFE752/1002

Airport on the map: